Location: *
(40.7873°S, 98.7174°E)
Time: 10:08:03
(UTC+00:00)

Cosmos 2221 - Pass Details

Date: 24 May 2022
Orbit: 591 x 614 km, 82.5° (Epoch: 04 July)

Event Time Altitude Azimuth Distance (km) Brightness Sun altitude
Rises 10:54:44 0° 185° (S) 2,922 5.9 -8.5°
Reaches altitude 10° 10:57:01 10° 181° (S) 2,009 5.0 -8.9°
Maximum altitude 11:01:26 61° 99° (E) 712 2.6 -9.7°
Drops below altitude 10° 11:05:47 10° 19° (NNE) 1,981 5.2 -10.5°
Sets 11:08:01 0° 15° (NNE) 2,877 6.0 -10.9°
